| time (UTC) | temp C | wind direction | speed KPH | gust KPH | rain 1hr cm | rain 24hr cm | rain mn cm | humidity % | barometer mb |
| 20260506005326 | 1 | 87 | 3.2 | 9.7 | 0.08 | 0.53 | 0.41 | 99 | 1025.1 |
| 20260506004322 | 1 | 136 | 4.8 | 9.7 | 0.05 | 0.53 | 0.38 | 99 | 1025.1 |
| 20260506003322 | 1 | 112 | 4.8 | 9.7 | 0.08 | 0.53 | 0.38 | 99 | 1025.1 |
| 20260506002318 | 1 | 147 | 6.4 | 11.3 | 0.05 | 0.58 | 0.38 | 99 | 1025.1 |
| 20260506001316 | 1 | 135 | 4.8 | 9.7 | 0.03 | 0.56 | 0.33 | 99 | 1025.1 |
| 20260506000316 | 1 | 110 | 8.0 | 14.5 | 0.05 | 0.56 | 0.33 | 99 | 1025.1 |
| 20260505235317 | 1 | 107 | 8.0 | 17.7 | 0.05 | 0.56 | 0.33 | 99 | 1025.2 |
| 20260505234318 | 2 | 136 | 9.7 | 17.7 | 0.05 | 0.56 | 0.33 | 99 | 1025.2 |
| 20260505233317 | 2 | 127 | 6.4 | 19.3 | 0.05 | 0.56 | 0.33 | 99 | 1025.2 |
| 20260505232317 | 2 | 122 | 11.3 | 24.1 | 0.05 | 0.56 | 0.33 | 99 | 1025.2 |
| 20260505231317 | 2 | 130 | 9.7 | 20.9 | 0.05 | 0.53 | 0.30 | 99 | 1025.2 |
| 20260505230314 | 2 | 130 | 11.3 | 20.9 | 0.00 | 0.51 | 0.28 | 99 | 1025.2 |
| 20260505225311 | 2 | 124 | 12.9 | 20.9 | 0.00 | 0.51 | 0.28 | 99 | 1025.2 |
| 20260505224312 | 2 | 63 | 8.0 | 19.3 | 0.00 | 0.51 | 0.28 | 99 | 1025.2 |
| 20260505223311 | 2 | 111 | 9.7 | 20.9 | 0.00 | 0.51 | 0.28 | 99 | 1025.2 |
| 20260505222312 | 2 | 122 | 11.3 | 24.1 | 0.08 | 0.51 | 0.28 | 99 | 1025.2 |
| 20260505221312 | 2 | 73 | 9.7 | 19.3 | 0.10 | 0.51 | 0.28 | 99 | 1025.3 |
| 20260505220312 | 2 | 127 | 9.7 | 20.9 | 0.10 | 0.51 | 0.28 | 99 | 1025.3 |
| 20260505215750 | 2 | 125 | 11.3 | 20.9 | 0.10 | 0.51 | 0.28 | 99 | 1025.3 |
| 20260505214309 | 2 | 139 | 12.9 | 24.1 | 0.10 | 0.51 | 0.28 | 99 | 1025.3 |
| 20260505213748 | 2 | 131 | 11.3 | 27.4 | 0.10 | 0.51 | 0.28 | 99 | 1025.2 |
| 20260505212310 | 2 | 70 | 9.7 | 25.7 | 0.08 | 0.53 | 0.20 | 99 | 1025.3 |
| 20260505211310 | 2 | 127 | 11.3 | 22.5 | 0.05 | 0.51 | 0.18 | 99 | 1025.3 |
| 20260505210310 | 2 | 139 | 11.3 | 17.7 | 0.08 | 0.56 | 0.18 | 99 | 1025.3 |
| 20260505205310 | 2 | 59 | 9.7 | 17.7 | 0.10 | 0.56 | 0.18 | 99 | 1025.3 |
| 20260505204310 | 2 | 89 | 12.9 | 32.2 | 0.10 | 0.56 | 0.18 | 99 | 1025.3 |
| 20260505203308 | 2 | 321 | 11.3 | 32.2 | 0.08 | 0.56 | 0.15 | 99 | 1025.3 |
| 20260505202308 | 2 | 77 | 11.3 | 20.9 | 0.08 | 0.51 | 0.13 | 99 | 1025.3 |
| 20260505201308 | 2 | 95 | 11.3 | 22.5 | 0.08 | 0.51 | 0.13 | 99 | 1025.3 |
| 20260505200307 | 2 | 151 | 9.7 | 27.4 | 0.05 | 0.48 | 0.10 | 99 | 1025.3 |
| 20260505195308 | 2 | 106 | 11.3 | 27.4 | 0.05 | 0.51 | 0.10 | 99 | 1025.3 |
| 20260505194308 | 2 | 66 | 11.3 | 20.9 | 0.03 | 0.61 | 0.08 | 99 | 1025.3 |
| 20260505193310 | 2 | 117 | 8.0 | 16.1 | 0.03 | 0.66 | 0.08 | 99 | 1025.3 |
| 20260505192752 | 2 | 338 | 6.4 | 19.3 | 0.00 | 0.64 | 0.05 | 99 | 1025.5 |
| 20260505191303 | 2 | 124 | 6.4 | 24.1 | 0.00 | 0.64 | 0.05 | 99 | 1025.5 |
| 20260505190303 | 2 | 105 | 4.8 | 24.1 | 0.00 | 0.64 | 0.05 | 99 | 1025.5 |
| 20260505185305 | 2 | 121 | 3.2 | 8.0 | 0.00 | 0.64 | 0.05 | 99 | 1025.5 |
| 20260505184303 | 2 | 124 | 3.2 | 6.4 | 0.00 | 0.64 | 0.05 | 99 | 1025.5 |
| 20260505183746 | 2 | 41 | 3.2 | 4.8 | 0.00 | 0.64 | 0.05 | 99 | 1025.3 |
| 20260505182305 | 2 | 346 | 4.8 | 8.0 | 0.00 | 0.64 | 0.05 | 99 | 1025.3 |
| 20260505181304 | 2 | 338 | 4.8 | 9.7 | 0.00 | 0.64 | 0.05 | 99 | 1025.3 |
| 20260505180258 | 2 | 343 | 6.4 | 11.3 | 0.00 | 0.64 | 0.05 | 99 | 1025.3 |
| 20260505175257 | 2 | 343 | 8.0 | 12.9 | 0.00 | 0.64 | 0.05 | 99 | 1025.3 |
| 20260505174258 | 2 | 70 | 8.0 | 16.1 | 0.00 | 0.64 | 0.05 | 99 | 1025.3 |
| 20260505173258 | 2 | 305 | 14.5 | 25.7 | 0.00 | 0.64 | 0.05 | 99 | 1025.3 |
| 20260505172739 | 2 | 3 | 14.5 | 24.1 | 0.00 | 0.64 | 0.05 | 99 | 1025.2 |
| 20260505171258 | 2 | 7 | 9.7 | 17.7 | 0.00 | 0.64 | 0.05 | 99 | 1025.2 |
| 20260505170258 | 2 | 359 | 11.3 | 17.7 | 0.00 | 0.66 | 0.05 | 99 | 1025.2 |
| 20260505165255 | 2 | 351 | 11.3 | 19.3 | 0.00 | 0.71 | 0.05 | 99 | 1025.2 |
| 20260505164252 | 2 | 339 | 12.9 | 19.3 | 0.00 | 0.71 | 0.05 | 99 | 1025.2 |
| 20260505163253 | 2 | 4 | 12.9 | 22.5 | 0.05 | 0.74 | 0.05 | 99 | 1025.2 |
| 20260505162253 | 2 | 357 | 11.3 | 17.7 | 0.05 | 0.76 | 0.05 | 99 | 1025.2 |
| 20260505161253 | 2 | 5 | 14.5 | 20.9 | 0.05 | 0.76 | 0.05 | 99 | 1025.2 |
| 20260505160253 | 2 | 352 | 12.9 | 17.7 | 0.05 | 0.79 | 0.05 | 99 | 1025.2 |
| 20260505153251 | 2 | 338 | 14.5 | 20.9 | 0.00 | 0.97 | 0.00 | 99 | 1025.2 |
| 20260505152251 | 2 | 2 | 12.9 | 22.5 | 0.00 | 1.02 | 0.00 | 99 | 1025.2 |
| 20260505151251 | 2 | 4 | 14.5 | 22.5 | 0.00 | 1.04 | 0.00 | 99 | 1025.2 |
| 20260505150251 | 2 | 11 | 14.5 | 20.9 | 0.00 | 1.09 | 0.00 | 99 | 1025.3 |
| 20260505140249 | 5 | 127 | 4.8 | 11.3 | 0.00 | 1.57 | 0.00 | 99 | 1025.6 |
| 20260505130243 | 5 | 148 | 4.8 | 8.0 | 0.00 | 1.57 | 0.00 | 99 | 1025.7 |
| 20260505124723 | 6 | 162 | 4.8 | 11.3 | 0.00 | 1.57 | 0.00 | 99 | 1025.7 |
| 20260505123245 | 6 | 132 | 4.8 | 11.3 | 0.00 | 1.57 | 0.00 | 99 | 1025.7 |
| 20260505122246 | 6 | 129 | 6.4 | 12.9 | 0.00 | 1.57 | 0.00 | 99 | 1025.7 |
| 20260505121239 | 6 | 0 | 6.4 | 11.3 | 0.00 | 1.57 | 0.00 | 99 | 1025.7 |
| 20260505121211 | 6 | 0 | 3.2 | 12.9 | 0.00 | 1.57 | 0.00 | 99 | 1025.7 |
| 20260505115238 | 6 | 186 | 4.8 | 12.9 | 0.00 | 1.57 | 0.00 | 99 | 1025.8 |
| 20260505114238 | 6 | 118 | 3.2 | 9.7 | 0.00 | 1.57 | 0.00 | 99 | 1025.8 |
| 20260505113238 | 6 | 0 | 3.2 | 9.7 | 0.00 | 1.57 | 0.00 | 99 | 1025.8 |
| 20260505112239 | 7 | 0 | 1.6 | 6.4 | 0.00 | 1.57 | 0.00 | 99 | 1025.8 |
| 20260505111239 | 7 | 0 | 1.6 | 4.8 | 0.00 | 1.57 | 0.00 | 99 | 1025.8 |
| 20260505110715 | 7 | 166 | 3.2 | 9.7 | 0.00 | 1.57 | 0.00 | 99 | 1025.8 |
| 20260505101224 | 6 | 216 | 3.2 | 4.8 | 0.00 | 1.57 | 0.00 | 99 | 1025.6 |
| 20260505100219 | 6 | 254 | 3.2 | 8.0 | 0.00 | 1.57 | 0.00 | 99 | 1025.6 |
| 20260505095219 | 6 | 260 | 4.8 | 8.0 | 0.00 | 1.57 | 0.00 | 99 | 1025.5 |
| 20260505094219 | 7 | 187 | 4.8 | 6.4 | 0.00 | 1.57 | 0.00 | 99 | 1025.6 |
| 20260505093217 | 7 | 230 | 3.2 | 6.4 | 0.00 | 1.57 | 0.00 | 99 | 1025.6 |
| 20260505092214 | 7 | 216 | 3.2 | 4.8 | 0.00 | 1.57 | 0.00 | 99 | 1025.6 |
| 20260505091214 | 7 | 226 | 3.2 | 4.8 | 0.00 | 1.57 | 0.00 | 99 | 1025.6 |
| 20260505090214 | 7 | 327 | 1.6 | 4.8 | 0.00 | 1.57 | 0.00 | 99 | 1025.6 |
| 20260505085214 | 7 | 131 | 3.2 | 6.4 | 0.00 | 1.57 | 0.00 | 99 | 1025.7 |
| 20260505084215 | 7 | 77 | 3.2 | 4.8 | 0.00 | 1.57 | 0.00 | 99 | 1025.8 |
| 20260505083215 | 7 | 346 | 3.2 | 6.4 | 0.00 | 1.57 | 0.00 | 99 | 1025.8 |
| 20260505082213 | 7 | 9 | 3.2 | 8.0 | 0.00 | 1.57 | 0.00 | 99 | 1025.8 |
| 20260505081209 | 7 | 339 | 4.8 | 8.0 | 0.00 | 1.57 | 0.00 | 99 | 1025.9 |
| 20260505080210 | 7 | 356 | 4.8 | 11.3 | 0.00 | 1.57 | 0.00 | 99 | 1025.9 |
| 20260505075210 | 7 | 338 | 6.4 | 11.3 | 0.00 | 1.57 | 0.00 | 99 | 1025.9 |
| 20260505074646 | 7 | 355 | 6.4 | 11.3 | 0.00 | 1.57 | 0.00 | 99 | 1025.9 |
| 20260505073649 | 7 | 337 | 6.4 | 11.3 | 0.00 | 1.57 | 0.00 | 99 | 1025.9 |
| 20260505072207 | 7 | 349 | 8.0 | 14.5 | 0.00 | 1.57 | 0.00 | 99 | 1025.8 |
| 20260505071208 | 7 | 5 | 8.0 | 12.9 | 0.00 | 1.57 | 0.00 | 99 | 1025.8 |
| 20260505070208 | 7 | 329 | 6.4 | 12.9 | 0.00 | 1.57 | 0.00 | 99 | 1025.8 |
| 20260505065209 | 7 | 332 | 6.4 | 14.5 | 0.00 | 1.57 | 0.00 | 99 | 1025.8 |
| 20260505064209 | 7 | 349 | 6.4 | 11.3 | 0.03 | 1.57 | 0.00 | 99 | 1025.7 |
| 20260505063208 | 7 | 299 | 4.8 | 9.7 | 0.05 | 1.57 | 0.00 | 99 | 1025.7 |
| 20260505062207 | 7 | 333 | 4.8 | 9.7 | 0.05 | 1.57 | 0.00 | 99 | 1025.7 |
| 20260505061205 | 7 | 10 | 6.4 | 11.3 | 0.05 | 1.57 | 0.00 | 99 | 1025.7 |
| 20260505060204 | 7 | 48 | 6.4 | 11.3 | 0.05 | 1.57 | 0.00 | 99 | 1025.8 |
| 20260505055205 | 8 | 353 | 6.4 | 11.3 | 0.05 | 1.55 | 1.55 | 99 | 1025.8 |
| 20260505054205 | 8 | 351 | 8.0 | 12.9 | 0.03 | 1.55 | 1.55 | 99 | 1025.8 |
| 20260505053205 | 8 | 60 | 6.4 | 11.3 | 0.00 | 1.60 | 1.52 | 99 | 1025.8 |
| 20260505052205 | 9 | 35 | 6.4 | 14.5 | 0.00 | 1.60 | 1.52 | 99 | 1025.9 |
| 20260505051202 | 9 | 349 | 9.7 | 16.1 | 0.00 | 1.60 | 1.52 | 99 | 1026.1 |
| 20260505050203 | 9 | 3 | 8.0 | 14.5 | 0.00 | 1.60 | 1.52 | 99 | 1026.1 |
| 20260505041201 | 9 | 339 | 9.7 | 19.3 | 0.00 | 1.60 | 1.52 | 99 | 1026.1 |
| 20260505040641 | 9 | 9 | 9.7 | 16.1 | 0.00 | 1.60 | 1.52 | 99 | 1026.1 |
| 20260505035201 | 9 | 330 | 9.7 | 19.3 | 0.00 | 1.60 | 1.52 | 99 | 1026.1 |
| 20260505034201 | 9 | 339 | 9.7 | 17.7 | 0.00 | 1.60 | 1.52 | 99 | 1026.1 |
| 20260505033201 | 10 | 320 | 9.7 | 19.3 | 0.00 | 1.60 | 1.52 | 99 | 1026.1 |
| 20260505032158 | 10 | 330 | 11.3 | 19.3 | 0.00 | 1.60 | 1.52 | 99 | 1026.1 |
| 20260505031158 | 10 | 333 | 9.7 | 17.7 | 0.00 | 1.60 | 1.52 | 99 | 1026.1 |
| 20260505030159 | 10 | 345 | 9.7 | 14.5 | 0.00 | 1.60 | 1.52 | 99 | 1026.1 |
| 20260505025159 | 10 | 5 | 11.3 | 19.3 | 0.00 | 1.60 | 1.52 | 99 | 1026.2 |
| 20260505024159 | 10 | 350 | 9.7 | 19.3 | 0.00 | 1.60 | 1.52 | 99 | 1026.2 |
| 20260505023200 | 10 | 316 | 8.0 | 16.1 | 0.00 | 1.60 | 1.52 | 99 | 1026.2 |
| 20260505022200 | 10 | 332 | 11.3 | 17.7 | 0.05 | 1.60 | 1.52 | 99 | 1026.2 |
| 20260505021156 | 10 | 346 | 9.7 | 17.7 | 0.08 | 1.60 | 1.52 | 99 | 1026.2 |
| 20260505020156 | 11 | 16 | 12.9 | 24.1 | 0.10 | 1.60 | 1.52 | 99 | 1026.2 |
| 20260505015157 | 11 | 343 | 14.5 | 25.7 | 0.10 | 1.60 | 1.52 | 99 | 1026.2 |
| 20260505014157 | 11 | 349 | 9.7 | 17.7 | 0.10 | 1.60 | 1.52 | 99 | 1026.1 |
| 20260505013157 | 11 | 312 | 11.3 | 22.5 | 0.10 | 1.60 | 1.50 | 99 | 1025.9 |
| 20260505012158 | 12 | 289 | 11.3 | 24.1 | 0.13 | 1.57 | 1.47 | 99 | 1026.2 |
| 20260505011155 | 13 | 342 | 9.7 | 20.9 | 0.10 | 1.52 | 1.45 | 99 | 1026.7 |
| 20260505010631 | 13 | 341 | 12.9 | 25.7 | 0.08 | 1.52 | 1.42 | 99 | 1026.7 |